DMSP 5D-2 F13 DEB, 40610

Orbit data source: Space-Track

DMSP 5D-2 F13 DEB, 40610 is space debris in SSO originally from a launch on Fri, 24 Mar 1995 UTC launched from the Air Force Western Test Range (AFWTR). Debris objects in space refer to the collection of defunct objects orbiting the Earth. Examples of debris include non-operational satellites, rocket bodies, and fragments generated from explosions, collisions, or faulty payload assembly.

Loading next visibility...
DMSP 5D-2 F13 DEB details
Identifier
40610, 1995-015FH
Orbit
SSO
Last TLE update23 hours ago
Origin
Flag of USUSAF SMC (US)
ManufacturerUnknown
MissionSpacecraft
Bus & MotorUnknown
MassUnknown
Launch date (UTC)
1995-03-24 (30 years ago)
Launch vehicleUnknown
Launch site
Air Force Western Test Range (AFWTR)
Object type
Payload
Rocket body
Debris
Shape & HBRUnknown
Radar Cross SectionSmall (<0.1 m²)

Expand to show TLE details & history

TLE from 23 hours ago
0 DMSP 5D-2 F13 DEB
1 40610U 95015FH  24360.84242575  .00013086  00000-0  46626-2 0  9997
2 40610  98.7247  23.2785 0027720 198.7756 161.2408 14.34130753502121
Epoch: 2024-12-25T20:13Z
Definitive object data (Epoch: 2024-12-25T20:13:05.584Z)
Latitude-0.00006°
Longitude-14.82513°
Altitude799.682 km
Speed7.444 km/s
True Right ascension01h 33m 06s
True Declination0° 00' 00"
Sunlit
Object was in daylight at TLE epoch
Visualization TLE readout
Latitude-26.28261°
Longitude-9.52162°
Altitude802.324 km
Speed7.444 km/s
Apparent Right ascension04h 00m 41s
Apparent Declination-38° 40' 15"
Sunlit
Object is in daylight
Visualization observer readout
Local Sidereal Time18:54:52
Azimuth102.182° ESE
Elevation-56.616°
Doppler factor1
Orbital elements
Apogee altitude794.926 km
Perigee altitude755.268 km
Semi-major axis7,153.234 km
Eccentricity0.002772
Inclination98.7247°
RAAN23.2785°
Arg. of periapsis198.7756°
True anomaly161.34262°
Mean anomaly161.2408°
Eccentric anomaly161.29174°
Mean motion3.58748 °/min
BSTAR0.0046626
Orbital period100.35 mins
Loading maneuver chart data...

DMSP 5D-2 F13 DEB Visibility forecast

Observer location: undefined°, undefined

Span
Click to sort rows by Start time (UTC) header in descending order
Start Az.
Max El. time (UTC)
Max El. Az.
Max El.
End time (UTC)
End Az.
8 mins2024-12-27 00:49:11.424Z124.147° SE2024-12-27 00:53:11.424Z67.872° E26.792°2024-12-27 00:57:11.424Z10.717° NNE
7 mins2024-12-27 02:29:11.424Z210.803° SW2024-12-27 02:32:11.424Z259.911° W28.034°2024-12-27 02:36:11.424Z321.25° NNW
8 mins2024-12-27 14:40:11.424Z13.844° NNE2024-12-27 14:44:11.424Z193.508° SSW43.932°2024-12-27 14:48:11.424Z194.88° SSW
|